STARLINK-33831, 63595

Orbit data source: Space-Track

STARLINK-33831, 63595 is a payload satellite in LEO that was launched on Mon, 14 Apr 2025 UTC via an FALCON 9 launch vehicle from the Air Force Eastern Test Range (AFETR). Payload-class satellites include a variety of spacecraft equipped with specific instruments for various scientific and technological missions. These include communications satellites like Starlink; space stations such as the ISS; scientific satellites like the Hubble; Earth observation satellites from companies like Planet Labs, Umbra, and HawkEye 360; GPS; miniature CubeSats for education and research; and military/defense satellites.

Loading next visibility...
Identifier
63595, 2025-076AC
Orbit
LEO
Last TLE update
2 weeks ago
Origin
Manufacturer
SpaceX/Seattle
Mission
Operational spacecraft
Bus & Motor
STARLINK V2MO, Unknown motor
Mass
575 kg wet, ~530 kg dry
Launch date (UTC)
2025-04-14 (1 month ago)
Launch vehicle
FALCON 9
Launch site
Air Force Eastern Test Range (AFETR)
Object type
Payload
Rocket body
Debris
Shape & HBR
Unknown
Radar Cross Section
Large (>1 m²)

Expand to show TLE details & history

TLE from 2 weeks ago
0 STARLINK-33831
1 63595U 25076AC  25126.07505063 -.00063259  00000-0 -35728-3 0  9995
2 63595  42.9964 263.3218 0003116  15.5955 344.5011 15.78221227  4739
Epoch: 2025-05-06T01:48Z
TLE epoch observation values (Epoch: 2025-05-06T01:48:04.374Z)
Latitude
-0°
Longitude
12.12411°
Altitude
333.235 km
Speed
7.712 km/s
True Right ascension
17h 33m 17s
True Declination
0° 00' 00"
Sunlit
Object was in full shadow at epoch
Visualization orbit readout
Latitude
42.80017°
Longitude
3.92472°
Altitude
341.72 km
Speed
7.711 km/s
Apparent Right ascension
15h 33m 43s
Apparent Declination
2° 57' 42"
Sunlit
Object is in full shadow
Visualization observer readout
Local Sidereal Time
02:06:14
Azimuth
329.607° NNW
Elevation
-42.662°
Doppler factor
1
Orbital elements
Apogee altitude
339.561 km
Perigee altitude
335.376 km
Semi-major axis
6,715.606 km
Eccentricity
0.00031
Inclination
42.9964°
RAAN
263.3218°
Arg. of periapsis
15.5955°
True anomaly
Unknown
Mean anomaly
344.5011°
Eccentric anomaly
Unknown
Mean motion
3.9438 °/min
Orbital period
91.28 mins
BSTAR
-0.00035728
Loading maneuver chart data...
Loading SW <> Apogee altitude chart data...
Loading historical data...
Loading historical data...
Loading historical data...
Loading historical data...
Loading historical data...
Loading historical data...
Loading historical data...

STARLINK-33831 Visibility forecast

Observer location: undefined°, undefined°

Span
Click to sort rows by Start time (UTC) header in descending order
Start Az.
Max El. time (UTC)
Max El. Az.
Max El.
End time (UTC)
End Az.
4 mins2025-05-21 06:49:16.139Z259.82° W2025-05-21 06:50:16.139Z291.696° WNW43.741°2025-05-21 06:53:16.139Z70.62° E
|